Location: Degersen
(52.2871°N, 9.5716°E)
Time: 00:16:55
(UTC+00:00)

Cosmos 2251 Rocket - Pass Details

Date: 20 January 2026
Orbit: 762 x 787 km, 74.0° (Epoch: 17 February)

Event Time Altitude Azimuth Distance (km) Brightness Sun altitude
Rises 06:03:04 0° 208° (SSW) 3,265 6.7 -11.3°
Reaches altitude 10° 06:05:28 10° 210° (SSW) 2,338 5.9 -11.0°
Maximum altitude 06:10:47 77° 296° (WNW) 807 3.5 -10.2°
Drops below altitude 10° 06:16:07 10° 23° (NNE) 2,340 6.1 -9.4°
Sets 06:18:31 0° 25° (NNE) 3,268 6.8 -9.1°
